Time,TemperatureF,DewpointF,PressureIn,WindDirection,WindDirectionDegrees,WindSpeedMPH,WindSpeedGustMPH,Humidity,HourlyPrecipIn,Conditions,Clouds,dailyrainin,SoftwareType,DateUTC
2013-07-31 00:22:00,63.0,55.0,29.22,WSW,247,0.0,0.0,76,0.00,,,0.00,,2013-07-31 04:22:00,
2013-07-31 00:32:00,63.0,55.0,29.22,WSW,247,0.0,0.0,76,0.00,,,0.00,,2013-07-31 04:32:00,
2013-07-31 00:42:00,63.0,56.0,29.19,SSE,157,0.0,0.0,78,0.00,,,0.00,,2013-07-31 04:42:00,
2013-07-31 00:52:00,63.0,56.0,29.19,SSE,157,0.0,0.0,78,0.00,,,0.00,,2013-07-31 04:52:00,
2013-07-31 01:02:00,63.0,56.0,29.19,SSE,157,0.0,0.0,78,0.00,,,0.00,,2013-07-31 05:02:00,
2013-07-31 01:12:00,62.0,55.0,29.19,SSE,157,0.0,0.0,79,0.00,,,0.00,,2013-07-31 05:12:00,
2013-07-31 01:22:00,62.0,56.0,29.19,SSE,157,0.0,0.0,80,0.00,,,0.00,,2013-07-31 05:22:00,
2013-07-31 01:32:00,61.0,55.0,29.19,SSE,157,0.0,0.0,81,0.00,,,0.00,,2013-07-31 05:32:00,
2013-07-31 01:42:00,61.0,55.0,29.19,SSE,157,0.0,0.0,82,0.00,,,0.00,,2013-07-31 05:42:00,
2013-07-31 01:52:00,61.0,55.0,29.22,SSE,157,0.0,0.0,81,0.00,,,0.00,,2013-07-31 05:52:00,
2013-07-31 02:02:00,61.0,55.0,29.22,SSE,157,0.0,0.0,82,0.00,,,0.00,,2013-07-31 06:02:00,
2013-07-31 02:12:00,61.0,55.0,29.22,SSE,157,0.0,0.0,82,0.00,,,0.00,,2013-07-31 06:12:00,
2013-07-31 02:32:00,61.0,56.0,29.19,SSE,157,0.0,0.0,83,0.00,,,0.00,,2013-07-31 06:32:00,
2013-07-31 02:43:00,61.0,56.0,29.19,SSE,157,0.0,0.0,84,0.00,,,0.00,,2013-07-31 06:43:00,
2013-07-31 02:53:00,61.0,56.0,29.19,SSE,157,0.0,0.0,84,0.00,,,0.00,,2013-07-31 06:53:00,
2013-07-31 03:02:00,61.0,56.0,29.19,SSE,157,0.0,0.0,84,0.00,,,0.00,,2013-07-31 07:02:00,
2013-07-31 03:12:00,60.0,55.0,29.19,SSE,157,0.0,0.0,85,0.00,,,0.00,,2013-07-31 07:12:00,
2013-07-31 03:22:00,60.0,55.0,29.19,SSE,157,0.0,0.0,85,0.00,,,0.00,,2013-07-31 07:22:00,
2013-07-31 03:32:00,60.0,55.0,29.19,SSE,157,0.0,0.0,85,0.00,,,0.00,,2013-07-31 07:32:00,
2013-07-31 03:43:00,60.0,55.0,29.19,SSE,157,0.0,0.0,85,0.00,,,0.00,,2013-07-31 07:43:00,
2013-07-31 03:52:00,60.0,56.0,29.19,SSE,157,0.0,0.0,86,0.00,,,0.00,,2013-07-31 07:52:00,
2013-07-31 04:02:00,60.0,56.0,29.19,SSE,157,0.0,0.0,86,0.00,,,0.00,,2013-07-31 08:02:00,
2013-07-31 04:12:00,60.0,56.0,29.19,SSE,157,0.0,0.0,87,0.00,,,0.00,,2013-07-31 08:12:00,
2013-07-31 04:42:00,60.0,56.0,29.19,SSE,157,0.0,0.0,87,0.00,,,0.00,,2013-07-31 08:42:00,
2013-07-31 04:53:00,60.0,56.0,29.16,SSE,157,0.0,0.0,88,0.00,,,0.00,,2013-07-31 08:53:00,
2013-07-31 05:02:00,60.0,56.0,29.16,SSE,157,0.0,0.0,87,0.00,,,0.00,,2013-07-31 09:02:00,
2013-07-31 05:12:00,60.0,56.0,29.16,SSE,157,0.0,0.0,88,0.00,,,0.00,,2013-07-31 09:12:00,
2013-07-31 05:22:00,60.0,56.0,29.16,SSE,157,0.0,0.0,88,0.00,,,0.00,,2013-07-31 09:22:00,
2013-07-31 05:32:00,60.0,56.0,29.19,SSE,157,0.0,0.0,88,0.00,,,0.00,,2013-07-31 09:32:00,
2013-07-31 05:43:00,60.0,56.0,29.16,SSE,157,0.0,0.0,88,0.00,,,0.00,,2013-07-31 09:43:00,
2013-07-31 05:52:00,60.0,56.0,29.16,ESE,112,0.0,0.0,88,0.00,,,0.00,,2013-07-31 09:52:00,
2013-07-31 06:12:00,60.0,56.0,29.16,ESE,112,0.0,0.0,88,0.00,,,0.00,,2013-07-31 10:12:00,
2013-07-31 06:22:00,60.0,56.0,29.16,ESE,112,0.0,0.0,88,0.00,,,0.00,,2013-07-31 10:22:00,
2013-07-31 06:32:00,61.0,57.0,29.16,SE,135,0.0,0.0,88,0.00,,,0.00,,2013-07-31 10:32:00,
2013-07-31 06:44:00,61.0,57.0,29.16,SSE,157,0.0,0.0,88,0.00,,,0.00,,2013-07-31 10:44:00,
2013-07-31 06:52:00,61.0,57.0,29.16,SSE,157,0.0,0.0,88,0.00,,,0.00,,2013-07-31 10:52:00,
2013-07-31 07:03:00,61.0,57.0,29.16,SSE,157,0.0,0.0,88,0.00,,,0.00,,2013-07-31 11:03:00,
2013-07-31 07:12:00,61.0,57.0,29.16,SSE,157,0.0,0.0,88,0.00,,,0.00,,2013-07-31 11:12:00,
2013-07-31 07:22:00,61.0,57.0,29.16,SE,135,0.0,0.0,88,0.00,,,0.00,,2013-07-31 11:22:00,
2013-07-31 07:33:00,62.0,58.0,29.16,NE,45,0.0,0.0,88,0.00,,,0.00,,2013-07-31 11:33:00,
2013-07-31 07:43:00,62.0,58.0,29.19,NE,45,0.0,0.0,87,0.00,,,0.00,,2013-07-31 11:43:00,
2013-07-31 08:02:00,64.0,59.0,29.15,NE,45,0.0,0.0,85,0.00,,,0.00,,2013-07-31 12:02:00,
2013-07-31 08:33:00,64.0,58.0,29.15,NE,45,0.0,0.0,82,0.00,,,0.00,,2013-07-31 12:33:00,
2013-07-31 08:43:00,65.0,59.0,29.15,NE,45,0.0,0.0,80,0.00,,,0.00,,2013-07-31 12:43:00,
2013-07-31 08:52:00,65.0,59.0,29.15,NE,45,0.0,0.0,80,0.00,,,0.00,,2013-07-31 12:52:00,
2013-07-31 09:33:00,68.0,59.0,29.15,NE,45,0.0,0.0,72,0.00,,,0.00,,2013-07-31 13:33:00,
2013-07-31 09:43:00,69.0,59.0,29.15,NE,45,0.0,0.0,70,0.00,,,0.00,,2013-07-31 13:43:00,
2013-07-31 10:02:00,70.0,58.0,29.15,NE,45,0.0,0.0,66,0.00,,,0.00,,2013-07-31 14:02:00,
2013-07-31 10:12:00,71.0,58.0,29.15,NE,45,0.0,0.0,64,0.00,,,0.00,,2013-07-31 14:12:00,
2013-07-31 10:34:00,71.0,57.0,29.15,NE,45,0.0,0.0,62,0.00,,,0.00,,2013-07-31 14:34:00,
2013-07-31 10:43:00,71.0,57.0,29.15,NE,45,0.0,0.0,62,0.00,,,0.00,,2013-07-31 14:43:00,
2013-07-31 10:53:00,71.0,57.0,29.15,NE,45,0.0,0.0,62,0.00,,,0.00,,2013-07-31 14:53:00,
2013-07-31 11:12:00,71.0,57.0,29.15,West,270,0.0,0.0,62,0.00,,,0.00,,2013-07-31 15:12:00,
2013-07-31 11:22:00,71.0,57.0,29.15,West,270,0.0,0.0,62,0.00,,,0.00,,2013-07-31 15:22:00,
2013-07-31 11:33:00,71.0,58.0,29.15,West,270,0.0,0.0,63,0.00,,,0.00,,2013-07-31 15:33:00,
2013-07-31 11:43:00,71.0,59.0,29.15,West,270,0.0,0.0,65,0.00,,,0.00,,2013-07-31 15:43:00,
2013-07-31 11:53:00,71.0,59.0,29.15,West,270,0.0,0.0,66,0.00,,,0.00,,2013-07-31 15:53:00,
2013-07-31 12:02:00,71.0,59.0,29.15,West,270,0.0,0.0,67,0.00,,,0.00,,2013-07-31 16:02:00,
2013-07-31 12:12:00,71.0,60.0,29.15,West,270,0.0,0.0,69,0.00,,,0.00,,2013-07-31 16:12:00,
2013-07-31 12:22:00,71.0,60.0,29.15,WSW,247,0.0,0.0,69,0.00,,,0.00,,2013-07-31 16:22:00,
2013-07-31 12:33:00,72.0,61.0,29.15,WNW,292,0.0,1.0,69,0.00,,,0.00,,2013-07-31 16:33:00,
2013-07-31 12:44:00,72.0,61.0,29.15,WNW,292,0.0,0.0,68,0.00,,,0.00,,2013-07-31 16:44:00,
2013-07-31 12:52:00,72.0,61.0,29.15,WNW,292,0.0,0.0,68,0.00,,,0.00,,2013-07-31 16:52:00,
2013-07-31 13:03:00,73.0,61.0,29.12,WNW,292,0.0,0.0,67,0.00,,,0.00,,2013-07-31 17:03:00,
2013-07-31 13:33:00,74.0,60.0,29.12,West,270,0.0,0.0,61,0.00,,,0.00,,2013-07-31 17:33:00,
2013-07-31 13:43:00,74.0,60.0,29.12,SSE,157,0.0,0.0,61,0.00,,,0.00,,2013-07-31 17:43:00,
2013-07-31 13:53:00,74.0,60.0,29.12,SSE,157,0.0,0.0,61,0.00,,,0.00,,2013-07-31 17:53:00,
2013-07-31 14:02:00,75.0,60.0,29.12,WSW,247,1.0,4.0,59,0.00,,,0.00,,2013-07-31 18:02:00,
2013-07-31 14:33:00,76.0,59.0,29.12,ENE,67,0.0,3.0,55,0.00,,,0.00,,2013-07-31 18:33:00,
2013-07-31 15:12:00,78.0,58.0,29.09,North,0,2.0,3.0,50,0.00,,,0.00,,2013-07-31 19:12:00,
2013-07-31 16:22:00,80.0,57.0,29.10,SSE,157,0.0,0.0,46,0.00,,,0.00,,2013-07-31 20:22:00,
2013-07-31 19:42:00,72.0,59.0,29.03,West,270,0.0,0.0,63,0.00,,,0.00,,2013-07-31 23:42:00,
2013-07-31 19:52:00,73.0,60.0,29.03,West,270,0.0,0.0,64,0.00,,,0.00,,2013-07-31 23:52:00,
2013-07-31 20:02:00,73.0,60.0,29.03,West,270,0.0,0.0,63,0.00,,,0.00,,2013-08-01 00:02:00,
2013-07-31 20:12:00,73.0,60.0,29.03,West,270,0.0,0.0,63,0.00,,,0.00,,2013-08-01 00:12:00,
2013-07-31 20:22:00,72.0,59.0,29.03,West,270,0.0,0.0,63,0.00,,,0.00,,2013-08-01 00:22:00,
2013-07-31 20:32:00,72.0,59.0,29.03,West,270,0.0,0.0,64,0.00,,,0.00,,2013-08-01 00:32:00,
2013-07-31 20:43:00,72.0,60.0,29.03,West,270,0.0,0.0,67,0.00,,,0.00,,2013-08-01 00:43:00,
2013-07-31 20:52:00,72.0,60.0,29.03,West,270,0.0,0.0,67,0.00,,,0.00,,2013-08-01 00:52:00,
2013-07-31 21:03:00,71.0,61.0,29.03,West,270,0.0,0.0,70,0.00,,,0.00,,2013-08-01 01:03:00,
2013-07-31 21:12:00,70.0,61.0,29.00,West,270,0.0,0.0,73,0.00,,,0.00,,2013-08-01 01:12:00,
2013-07-31 21:22:00,70.0,62.0,29.00,West,270,0.0,0.0,76,0.00,,,0.00,,2013-08-01 01:22:00,
2013-07-31 21:33:00,69.0,62.0,29.00,West,270,0.0,0.0,79,0.00,,,0.00,,2013-08-01 01:33:00,
2013-07-31 21:43:00,69.0,63.0,29.00,West,270,0.0,0.0,80,0.00,,,0.00,,2013-08-01 01:43:00,
2013-07-31 21:53:00,69.0,62.0,29.01,West,270,0.0,0.0,79,0.00,,,0.00,,2013-08-01 01:53:00,
2013-07-31 22:02:00,69.0,63.0,29.01,West,270,0.0,0.0,82,0.00,,,0.00,,2013-08-01 02:02:00,
2013-07-31 22:12:00,69.0,63.0,29.01,West,270,0.0,0.0,82,0.00,,,0.00,,2013-08-01 02:12:00,
2013-07-31 22:22:00,69.0,63.0,29.01,West,270,0.0,0.0,82,0.00,,,0.00,,2013-08-01 02:22:00,
2013-07-31 22:32:00,69.0,63.0,29.01,West,270,0.0,0.0,82,0.00,,,0.00,,2013-08-01 02:32:00,
2013-07-31 22:43:00,69.0,64.0,29.01,West,270,0.0,0.0,83,0.00,,,0.00,,2013-08-01 02:43:00,
2013-07-31 23:12:00,68.0,63.0,29.01,West,270,0.0,0.0,83,0.00,,,0.00,,2013-08-01 03:12:00,
2013-07-31 23:22:00,68.0,63.0,29.01,West,270,0.0,0.0,83,0.00,,,0.00,,2013-08-01 03:22:00,
2013-07-31 23:32:00,68.0,63.0,29.01,West,270,0.0,0.0,84,0.00,,,0.00,,2013-08-01 03:32:00,
2013-07-31 23:43:00,68.0,63.0,29.01,West,270,0.0,0.0,85,0.00,,,0.00,,2013-08-01 03:43:00,
2013-07-31 23:53:00,68.0,63.0,29.01,West,270,0.0,0.0,85,0.00,,,0.00,,2013-08-01 03:53:00,